Regional Weather Roundup
Issued by NWS

Home | Current Version | Previous Version | Graphics & Text | Print | Product List | Glossary On
Versions: 1 2 3 4 5 6 7 8 9 10 11 12 13 14 15 16 17 18 19 20 21 22 23 24 25 26 27 28 29 30 31 32 33 34 35 36 37 38 39 40 41 42 43 44 45 46 47 48 49 50
000
ASUS43 KLOT 030208
RWRIL

ILLINOIS REGIONAL WEATHER ROUNDUP
NATIONAL WEATHER SERVICE CHICAGO/ROMEOVILLE IL
900 PM CDT THU JUL 02 2015

NOTE: "FAIR" INDICATES FEW OR NO CLOUDS BELOW 12,000 FEET WITH NO
SIGNIFICANT WEATHER AND/OR OBSTRUCTIONS TO VISIBILITY.

* THESE STATIONS ARE NOT UNDER NWS QUALITY CONTROL. THEY ALSO MAY NOT
  REPORT WEATHER SUCH AS PRECIPITATION OR FOG.

ILZ001-002-007-009-015-016-024-030300-
NORTHWEST ILLINOIS

CITY           SKY/WX    TMP DP  RH WIND       PRES   REMARKS
MOLINE         CLOUDY    68  56  65 NE3       29.96R
STERLING*      MOCLDY    63  57  82 NE3       29.97S
SAVANNA*       CLOUDY    65  56  74 CALM      29.97S
$$

ILZ003-004-008-010-011-017-018-030300-
NORTH CENTRAL ILLINOIS

CITY           SKY/WX    TMP DP  RH WIND       PRES   REMARKS
ROCKFORD       CLOUDY    64  53  67 E6        29.99R
FREEPORT*      MOCLDY    61  52  71 NE3       30.00R
ROCHELLE*      MOCLDY    62  55  78 NE6       29.98S
DE KALB*       MOCLDY    59  53  79 NE6       29.99R
PERU*          CLOUDY    65  56  74 NE8       29.97R
$$

ILZ005-006-012>014-019>023-030300-
NORTHEAST ILLINOIS

CITY           SKY/WX    TMP DP  RH WIND       PRES   REMARKS
CHICAGO-OHARE  CLOUDY    59  49  69 NE8       29.99R
CHICAGO-MIDWAY CLOUDY    62  51  67 NE13      29.98R
AURORA         MOCLDY    63  53  70 NE7       29.98R
LANSING*       MOCLDY    59  52  77 N6        29.98S
JOLIET*        MOCLDY    64  56  74 NE7       29.97R
WAUKEGAN       PTCLDY    56  49  77 N6        29.99S
DUPAGE AIRPORT MOCLDY    61  52  72 NE10      29.98R
KANKAKEE*      MOCLDY    62  57  86 NE9       29.96R
WHEELING       MOCLDY    58  49  72 NE6       30.00S
MORRIS*        MOCLDY    64  56  78 NE3       29.94S
ROMEOVILLE*    MOCLDY    62  52  71 NE14      29.97R
NORTHERLY ISL    N/A     58  51  78 N13         N/A
$$

LMZ740>746-030300-
SOUTHERN LAKE MICHIGAN

STATION/POSITION SKY/WX   TEMP    WIND        PRES    VSBY  WAVE
                          AIR SEA DIR/SP/G                  HT/PER
                          (F)     (DEG/KT/KT) (MB)    (MI)  (FT/S)
HARRISON CRIB              57     360/ 14/ 16   N/A
BURNHAM HARBOR             58     360/  7/ 13   N/A
CALUMET HARBOR             59     360/  9/ 13   N/A
BURNS HARBOR               63      40/ 14/ 17 1015.6S
MICHIGAN CITY              61      20/ 16/ 18   N/A
MICHIGAN CITY 6N           62 64   60/ 16/ 19   N/A           4/ 5
ST. JOSEPH                 59 63                N/A           3/ 4
$$

ILZ025>027-034>036-040-047-049-050-058-095>099-030300-
WEST-CENTRAL ILLINOIS

CITY           SKY/WX    TMP DP  RH WIND       PRES   REMARKS
QUINCY         CLOUDY    66  61  84 CALM      29.93R
GALESBURG*     CLOUDY    63  59  88 N7        29.95S
MACOMB*        CLOUDY    65  60  86 N5        29.96S
JACKSONVILLE*  CLOUDY    68  64  88 N5        29.91S
PITTSFIELD*    CLOUDY    67  62  84 NW3       29.94R
$$

ILZ028>032-037-038-041>044-048-051>054-059>061-030300-
CENTRAL ILLINOIS

CITY           SKY/WX    TMP DP  RH WIND       PRES   REMARKS
PONTIAC        MOCLDY    66  60  81 NE10      29.95R
BLOOMINGTON    CLOUDY    67  62  84 NE9       29.95R
DECATUR        MOCLDY    68  61  78 N8        29.91R
PEORIA         CLOUDY    70  57  63 N3        29.94R
LACON*         CLOUDY    64  56  75 NE3       29.94R
LINCOLN*       CLOUDY    69  63  80 N3        29.92S
SPRINGFIELD    CLOUDY    69  62  78 N6        29.91F
TAYLORVILLE    MOCLDY    64  63  94 N5        29.90F
$$

ILZ033-039-045-046-055>057-062-063-030300-
EAST-CENTRAL ILLINOIS

CITY           SKY/WX    TMP DP  RH WIND       PRES   REMARKS
CHAMPAIGN      MOCLDY    71  59  65 NE9       29.91R
DANVILLE*      CLOUDY    68  63  83 N6        29.89R
RANTOUL*       MOCLDY    70  62  77 NE9       29.92S
MATTOON        CLOUDY    70  65  84 N6        29.88R
PARIS*         MOCLDY    71  65  83 N6        29.90R
$$

ILZ079-100>102-030300-
SOUTHWEST ILLINOIS

CITY           SKY/WX    TMP DP  RH WIND       PRES   REMARKS
BELLEVILLE     CLOUDY    71  66  84 N5        29.89R
CAHOKIA*       CLOUDY    73  62  68 NE9       29.90R
SPARTA*        MOCLDY    73  68  84 CALM      29.89R
$$

ILZ064>066-069>071-074>076-080>082-084>086-088>090-092>094-030300-
SOUTH-CENTRAL ILLINOIS

CITY           SKY/WX    TMP DP  RH WIND       PRES   REMARKS
CARBONDALE     CLOUDY    73  68  84 CALM      29.87F
CAIRO*         CLOUDY    75  70  83 N7        29.85R
EFFINGHAM*     CLOUDY    71  64  78 NW3       29.91R
MARION         CLOUDY    73  70  88 CALM      29.87F
MT. VERNON     CLOUDY    72  66  83 CALM      29.88S
CENTRALIA*     CLOUDY    72  65  78 N5        29.90R
SALEM*         CLOUDY    73  67  79 N6        29.89R
METROPOLIS*    MOCLDY    76  71  86 N6        29.85F
$$

ILZ067-068-072-073-078-083-087-091-030300-
SOUTHEAST ILLINOIS

CITY           SKY/WX    TMP DP  RH WIND       PRES   REMARKS
LAWRENCEVILLE  CLOUDY    73  69  87 N5        29.86S
FLORA*         CLOUDY    73  69  87 CALM      29.88R
FAIRFIELD*     CLOUDY    71  70  96 NW5       29.86S
HARRISBURG*    CLOUDY    73  71  95 NW5       29.88S
ROBINSON*      CLOUDY    71  69  93 W3        29.88R
CARMI*         CLOUDY    74  66  75 CALM      29.86S
$$

ABBREVIATIONS USED IN REMARKS
   TC - TEMPERATURE IN CELSIUS
  WCI - WIND CHILL INDEX
   HX - HEAT INDEX
  VSB - VISIBILITY
$$



USA.gov is the U.S. government's official web portal to all federal, state and local government web resources and services.